Location: Central Coast
(33.3208°S, 151.2336°E)
Time: 17:54:29
(UTC+10:00)

ISS - Visible Passes

Search period start: 26 September 2020 00:00
Search period end: 06 October 2020 01:00
Orbit: 419 x 420 km, 51.6° (Epoch: 26 September)

Date Brightness Start Highest point End Pass type
(mag) Time Alt. Az. Time Alt. Az. Time Alt. Az.
26 Sep -3.2 04:04:27 48° SSW 04:04:27 48° SSW 04:07:26 10° SE visible
27 Sep -0.9 03:19:08 18° SE 03:19:08 18° SE 03:20:07 10° SE visible
27 Sep -1.3 04:52:21 10° SW 04:53:54 12° SSW 04:55:28 10° S visible
28 Sep -1.7 04:06:41 18° SSW 04:06:41 18° SSW 04:08:48 10° SSE visible
29 Sep -0.8 03:21:11 14° SSE 03:21:11 14° SSE 03:21:48 10° SSE visible
